Regional Weather Roundup
Issued by NWS

Home | Current Version | Previous Version | Graphics & Text | Print | Product List | Glossary Off
Versions: 1 2 3 4 5 6 7 8 9 10 11 12 13 14 15 16 17 18 19 20 21 22 23 24 25 26 27 28 29 30 31 32 33 34 35 36 37 38 39 40 41 42 43 44 45 46 47 48 49 50

754
ASUS43 KMKX 081100
RWRWI

WISCONSIN REGIONAL WEATHER ROUNDUP
NATIONAL WEATHER SERVICE MILWAUKEE/SULLIVAN WI
500 AM CST THU DEC 08 2016

NOTE: "FAIR" INDICATES FEW OR NO CLOUDS BELOW 12,000 FEET WITH NO
SIGNIFICANT WEATHER AND/OR OBSTRUCTIONS TO VISIBILITY.

WIZ001-002-006>008-014>016-023>028-081200-
NORTHWEST WISCONSIN

CITY           SKY/WX    TMP DP  RH WIND       PRES   REMARKS
SUPERIOR ARPT  CLOUDY    24  18  79 NW16      30.09R WCI  11
ASHLAND        LGT SNOW  21  19  92 SW7       30.04R FOG     WCI  12
HAYWARD        LGT SNOW  18  14  84 W6        30.05R FOG     WCI  10
SIREN          LGT SNOW  20  17  88 W9        30.11R WCI   9
CUMBERLAND     LGT SNOW  18  14  86 W14       30.08R WCI   4
RICE LAKE      LGT SNOW  18  14  86 W13       30.10R WCI   4
CHETEK         LGT SNOW  17  13  84 W8        30.08S WCI   7
LADYSMITH      FLURRIES  18  15  85 W13G18    30.05S WCI   5
EAU CLAIRE     LGT SNOW  18  12  79 W12       30.12R WCI   5
MENOMONIE      FLURRIES  18  14  83 W13G20    30.13R WCI   5
NEW RICHMOND   LGT SNOW  17  14  85 W10G17    30.14R WCI   5
OSCEOLA        LGT SNOW  19  15  86 W13G20    30.18R WCI   6
$$

WIZ003>005-009-010-017-018-081200-
NORTH CENTRAL WISCONSIN

CITY           SKY/WX    TMP DP  RH WIND       PRES   REMARKS
MANITOWISH WTR LGT SNOW  17  15  95 W12G17    29.92R WCI   4
ARBOR VITAE    FLURRIES  19  16  86 W9        29.92R WCI   8
WOODRUFF       FLURRIES  19  16  86 W9        29.92R WCI   8
RHINELANDER    CLOUDY    16  12  84 W16       29.94R WCI   1
EAGLE RIVER    FLURRIES  17  12  82 W9        29.90S WCI   5
LAND O LAKES   LGT SNOW  19  15  86 W9        29.90R WCI   7
PHILLIPS       LGT SNOW  16  14  91 W6        29.98R WCI   7
TOMAHAWK       CLOUDY    15  11  84 W8G17     29.97S WCI   3
MEDFORD        LGT SNOW  13  10  86 W10       30.00S WCI   0
MERRILL        LGT SNOW  15  11  85 W9        30.00R WCI   3
$$

WIZ029-030-035-036-043>047-081200-
CENTRAL WISCONSIN

CITY           SKY/WX    TMP DP  RH WIND       PRES   REMARKS
WAUSAU         LGT SNOW  15  11  83 W15       30.01R FOG     WCI   0
MOSINEE        LGT SNOW  14  12  92 W14G21    30.03R WCI  -1
MARSHFIELD     LGT SNOW  14   9  80 W15       30.04R WCI  -1
STEVENS POINT  LGT SNOW  14   9  82 W14       30.05R WCI  -1
WAUPACA        PTCLDY    19  11  72 W15       30.06S WCI   5
WAUTOMA        FLURRIES  17  11  77 W14       30.09R WCI   3
WISC RAPIDS    LGT SNOW  16  11  80 W13       30.08R WCI   2
CAMP DOUGLAS   FLURRIES  16  10  79 W13       30.12R WCI   2
$$

WIZ011>013-019>022-031-037>040-048>050-081200-
NORTHEAST WISCONSIN

CITY           SKY/WX    TMP DP  RH WIND       PRES   REMARKS
ANTIGO         LGT SNOW  13  10  86 W12       29.96R WCI  -1
SHAWANO        FLURRIES  19  12  73 W8G17     30.02S WCI   9
OCONTO         CLOUDY    19   9  67 W18G26    29.99S WCI   3
STURGEON BAY   CLOUDY    20  12  71 W17G24    29.97S WCI   5
GREEN BAY      LGT SNOW  20  14  77 W20       30.03R WCI   4
MANITOWOC      FLURRIES  21  10  63 MISG      30.03S
APPLETON       NOT AVBL
CLINTONVILLE   FLURRIES  19  12  73 W10G21    30.03S WCI   8
OSHKOSH        FLURRIES  19  11  70 W12G24    30.06R WCI   7
$$

WIZ032>034-041-042-053>061-081200-
SOUTHWEST WISCONSIN

CITY           SKY/WX    TMP DP  RH WIND       PRES   REMARKS
LA CROSSE      CLOUDY    18  10  71 W12       30.19R WCI   5
SPARTA         FLURRIES  16  11  80 W12G18    30.15S WCI   3
VIROQUA        CLOUDY    13   9  84 W9        30.14R WCI   1
BOSCOBEL       FLURRIES  16   8  71 W8        30.22S WCI   5
PRAIRIE DU CHI FLURRIES  15   6  68 W15G23    30.24R WCI  -1
PLATTEVILLE    CLOUDY    14   9  79 W18G24    30.20R WCI  -3
$$

WIZ056-057-062-063-064-067-068-081200-
SOUTH CENTRAL WISCONSIN

CITY           SKY/WX    TMP DP  RH WIND       PRES   REMARKS
REEDSBURG      PTCLDY    14   9  78 W13       30.14R WCI   0
BARABOO/DELLS  FLURRIES  15   9  78 W9        30.12R WCI   3
LONE ROCK      NOT AVBL
MINERAL POINT  FLURRIES  16  10  79 W16G23    30.15S WCI   0
MADISON        CLOUDY    15   7  70 W10       30.14R WCI   2
MIDDLETON      CLOUDY    17  10  74 W16       30.15R WCI   2
WATERTOWN      CLOUDY    18  11  75 W17       30.11R WCI   3
MONROE         CLOUDY    14   9  79 W25G32    30.15R WCI  -5
JANESVILLE     CLOUDY    18  10  73 W15G28    30.15S WCI   3
$$

WIZ051-052-058>065-066-070>072-081200-
SOUTHEAST WISCONSIN

CITY           SKY/WX    TMP DP  RH WIND       PRES   REMARKS
MILWAUKEE      CLOUDY    22  11  62 W16G24    30.10R WCI   8
WAUKESHA       CLOUDY    19  12  73 W13G21    30.10S WCI   7
MILWAUKEE/TIMM CLOUDY    21  10  63 W17       30.10R WCI   7
RACINE         CLOUDY    21  10  62 W16G23    30.13R WCI   7
BURLINGTON     CLOUDY    18  10  72 W15G25    30.12R WCI   3
KENOSHA        FLURRIES  20  12  71 W18       30.12R WCI   5
FOND DU LAC    FLURRIES  20  10  65 W15G24    30.08R WCI   6
SHEBOYGAN      FLURRIES  20  12  71 W17G26    30.05R WCI   5
WEST BEND      FLURRIES  19  12  73 W14G22    30.07R WCI   6
JUNEAU         FLURRIES  18  10  71 W12G21    30.10R WCI   5
$$

LSZ147-162-081200-
LAKE SUPERIOR

STATION/POSITION TIME  TEMP    WIND        PRES    WAVE
                       AIR SEA DIR/SP/G            HT/PER
                 (UTC) (F)     (DEG/KT/KT) (MB)    (FT/S)
DEVILS ISLAND    1000   28     330/ 23/ 27 1016.8R
PORT WING        1040   28     320/ 21/ 24 1017.9R
SAXON HARBOR     1040   30     320/ 22/ 25 1015.6R
$$

LMZ867-665-643>646-081200-
LAKE MICHIGAN

STATION/POSITION TIME  TEMP    WIND        PRES    WAVE
                       AIR SEA DIR/SP/G            HT/PER
                 (UTC) (F)     (DEG/KT/KT) (MB)    (FT/S)
CHAMBERS ISLAND  1040   21     240/ 11/ 23 1013.5S
NORTHPORT PIER   1040   23     270/ 10/ 21 1013.5R
SISTER BAY       1051   23     280/ 23/ 28   N/A
ALGOMA LAKESHORE 1051          270/ 15/ 20   N/A
KEWAUNEE LAKESHO 1030   20     330/ 17/ 24 1015.3S
SHEBOYGAN LAKESH 1000   21     260/ 16/ 20 1018.2R
PORT WASHINGTON  1030   22     270/ 10/ 16 1019.6R
MILWAUKEE LAKESH 1030   22     280/ 14/ 18   N/A
KENOSHA   LAKESH 1000   21     290/ 16/ 24 1019.6
$$

TC  - TEMPERATURE IN CELSIUS
VSB - VISIBILITY IN STATUTE MILES
WCI - WIND CHILL INDEX
HX  - HEAT INDEX





USA.gov is the U.S. government's official web portal to all federal, state and local government web resources and services.